Tracking 31027 objects as of 19-Jul-2025
HD Live streaming from Space Station
objects crossing your sky now

COSMOS 2251 DEB

Track COSMOS 2251 DEB now!
10-day predictions


NORAD ID: 38199
Int'l Code: 1993-036BSP
Perigee: 753.9 km
Apogee: 1,299.0 km
Inclination: 74.0 °
Period: 105.5 minutes
Semi major axis: 7397 km
RCS: 0.0096 m2 (small)
Launch date: June 16, 1993
Source: Commonwealth of Independent States (former USSR) (CIS)
Launch site: PLESETSK MISSILE AND SPACE COMPLEX (PKMTR)

Note: This is SATELLITE DEBRIS
Your satellite tracking list
KORSAT 7
Track 1 satellite(s)




NASA's NSSDC Master Catalog

Two Line Element Set (TLE):
1 38199U 93036BSP 25182.12603163  .00000411  00000-0  34238-3 0  9990
2 38199  73.9575 332.5629 0368467 291.9998  64.2352 13.64527272587763
Source of the keplerian elements: AFSPC